Hourly Weather Roundup
Issued by NWS Central Illinois

Home | Current Version | Previous Version | Text Only | Print | Product List | Glossary On
Versions: 1 2 3 4 5 6 7 8 9 10 11 12 13 14 15 16 17 18 19 20 21 22 23 24 25 26 27 28 29 30 31 32 33 34 35 36 37 38 39 40 41 42 43 44 45 46 47 48 49 50
132
NZUS43 KILX 030710
HWRILX

AREA WEATHER ROUNDUP
NATIONAL WEATHER SERVICE, LINCOLN IL
100 AM CST SAT DEC 03 2016


CITY           SKY/WX    TMP DP  RH WIND       PRES   REMARKS
BLOOMINGTON    CLOUDY    34  27  75 CALM      30.34
CHAMPAIGN      CLOUDY    37  28  70 NW12      30.35R WCI  29
DANVILLE       CLOUDY    37  28  70 NW6       30.31R WCI  32
DECATUR        CLOUDY    38  30  73 N6        30.36R WCI  33
EFFINGHAM      NOT AVBL
FLORA          NOT AVBL
GALESBURG      CLOUDY    33  28  80 W3        30.35R
JACKSONVILLE   CLOUDY    34  32  91 CALM      30.37S
LACON          NOT AVBL
LAWRENCEVILLE  CLOUDY    39  33  79 CALM      30.37R
LITCHFIELD     CLOUDY    32  30  92 CALM      30.37S
$$


CITY           SKY/WX    TMP DP  RH WIND       PRES   REMARKS
LINCOLN        NOT AVBL
MACOMB         CLOUDY    35  33  91 CALM      30.38R
MATTOON        NOT AVBL
MT CARMEL AP   CLOUDY    38  33  84 W5        30.37R WCI  34
OLNEY-NOBLE AP CLOUDY    36  34  93 CALM      30.38R
PARIS          CLOUDY    37  35  91 NW5       30.35R WCI  34
PEORIA         CLOUDY    36  27  69 CALM      30.36R
PONTIAC        CLOUDY    35  29  79 NW7       30.34S WCI  29
RANTOUL        NOT AVBL
SPRINGFIELD    NOT AVBL
TAYLORVILLE    CLOUDY    37  34  92 CALM      30.37R
$$

...REGIONAL REPORTS...


CITY           SKY/WX    TMP DP  RH WIND       PRES   REMARKS
CHICAGO O`HARE CLOUDY    33  24  69 SW3       30.31R
KANKAKEE       NOT AVBL
MOLINE         CLOUDY    34  25  69 W5        30.34R WCI  30
MOUNT STERLING CLOUDY    34  32  92 CALM      30.36S
MOUNT VERNON   NOT AVBL
PITTSFIELD     CLOUDY    32  30  92 CALM      30.38S
QUINCY         CLOUDY    35  31  85 CALM      30.36R
ROCKFORD       CLOUDY    32  22  66 NW7       30.33S WCI  26
$$


CITY           SKY/WX    TMP DP  RH WIND       PRES   REMARKS
BURLINGTON     NOT AVBL
CEDAR RAPIDS   CLOUDY    31  28  89 W7        30.33R WCI  24
DES MOINES     CLOUDY    36  30  79 S3        30.36R
KIRKSVILLE     NOT AVBL
OTTUMWA        NOT AVBL
ST LOUIS       PTCLDY    35  28  75 CALM      30.37F
$$


CITY           SKY/WX    TMP DP  RH WIND       PRES   REMARKS
TERRE HAUTE    CLOUDY    39  32  76 W5        30.35R
EVANSVILLE     NOT AVBL
INDIANAPOLIS   NOT AVBL
LAFAYETTE      CLOUDY    36  31  82 CALM      30.32S
MADISON        CLOUDY    30  22  72 MISG      30.30F
MILWAUKEE      CLOUDY    33  22  63 NW7       30.30F WCI  27
$$






USA.gov is the U.S. government's official web portal to all federal, state and local government web resources and services.